Location: Unspecified
(0.0000°N, 0.0000°E)
Time: 01:35:02
(UTC+00:00)

Vanguard 1 Rocket - All Passes

Search period start: 20 July 2019 00:00
Search period end: 30 July 2019 00:00
Orbit: 651 x 4225 km, 34.3° (Epoch: 18 July)

Date Brightness Start Highest point End Pass type
(mag) Time Alt. Az. Time Alt. Az. Time Alt. Az.
20 Jul - 05:31:31 10° SW 05:38:56 55° SE 05:53:24 10° ENE visible
20 Jul - 07:56:23 10° WSW 08:07:18 50° NNW 08:27:43 10° NE daylight
20 Jul - 10:28:05 10° WNW 10:42:43 25° NNW 11:02:09 10° NE daylight
20 Jul - 13:06:31 10° NW 13:24:59 23° N 13:41:42 10° NE daylight
20 Jul - 15:41:41 10° NW 16:03:43 40° NNE 16:17:17 10° E daylight
20 Jul - 18:15:36 10° NW 18:34:57 86° SW 18:44:24 10° SE visible
20 Jul - 20:53:53 10° W 21:00:55 18° SW 21:05:52 10° S visible
21 Jul - 04:22:12 10° SSW 04:27:44 26° SE 04:36:35 10° E visible
21 Jul - 06:44:55 10° WSW 06:53:50 71° NW 07:12:01 10° NE daylight
21 Jul - 09:13:21 10° WNW 09:25:58 31° NNW 09:45:36 10° NE daylight
21 Jul - 11:49:35 10° NW 12:05:56 22° N 12:23:38 10° NE daylight
21 Jul - 14:25:55 10° NW 14:47:25 31° NNE 15:03:08 10° ENE daylight
21 Jul - 16:59:29 10° NW 17:21:45 66° NNE 17:33:19 10° ESE daylight
21 Jul - 19:35:30 10° WNW 19:49:32 39° SW 19:57:12 10° SSE visible
22 Jul - 05:34:20 10° SW 05:41:37 74° SE 05:56:18 10° ENE visible
22 Jul - 08:00:13 10° W 08:10:47 39° NNW 08:29:38 10° NE daylight
22 Jul - 10:33:11 10° NW 10:47:18 22° N 11:05:21 10° NE daylight
22 Jul - 13:10:03 10° NW 13:29:40 25° NNE 13:46:56 10° ENE daylight
22 Jul - 15:43:42 10° NW 16:07:12 49° NNE 16:21:12 10° E daylight
22 Jul - 18:18:13 10° WNW 18:37:38 69° SW 18:47:19 10° SE visible
22 Jul - 20:59:39 10° WSW 21:03:46 13° SW 21:07:07 10° SSW visible
23 Jul - 04:24:34 10° SSW 04:30:22 37° SE 04:40:24 10° ENE visible
23 Jul - 06:48:19 10° WSW 06:57:00 54° NNW 07:14:08 10° NE daylight
23 Jul - 09:18:03 10° WNW 09:30:06 25° NNW 09:47:54 10° NE daylight
23 Jul - 11:54:06 10° NW 12:10:54 22° N 12:28:37 10° NE daylight
23 Jul - 14:28:15 10° NW 14:51:17 37° NNE 15:07:37 10° E daylight
23 Jul - 17:01:39 10° NW 17:24:40 82° NE 17:36:32 10° ESE daylight
23 Jul - 19:39:22 10° W 19:52:05 30° SW 19:59:37 10° SSE visible
24 Jul - 03:16:14 10° S 03:19:27 15° SE 03:23:32 10° ESE visible
24 Jul - 05:37:21 10° WSW 05:44:29 83° NW 05:58:53 10° NE visible
24 Jul - 08:04:22 10° WNW 08:14:31 31° NNW 08:31:33 10° NE daylight
24 Jul - 10:38:16 10° NW 10:52:06 21° N 11:09:14 10° NE daylight
24 Jul - 13:13:03 10° NW 13:34:03 29° NNE 13:52:02 10° ENE daylight
24 Jul - 15:45:44 10° NW 16:10:24 60° NNE 16:24:47 10° ESE daylight
24 Jul - 18:21:10 10° WNW 18:40:10 54° SW 18:50:01 10° SE visible
25 Jul - 04:27:12 10° SW 04:33:02 54° SE 04:43:44 10° ENE visible
25 Jul - 06:52:00 10° W 07:00:25 41° NNW 07:16:05 10° NE daylight
25 Jul - 09:23:03 10° NW 09:34:29 21° N 09:50:33 10° NE daylight
25 Jul - 11:58:00 10° NW 12:15:42 24° NNE 12:33:59 10° ENE daylight
25 Jul - 14:30:26 10° NW 14:54:49 45° NNE 15:11:43 10° E daylight
25 Jul - 17:04:01 10° NW 17:27:22 83° SW 17:39:32 10° SE daylight
25 Jul - 19:43:52 10° W 19:54:46 23° SW 20:01:47 10° S visible
26 Jul - 03:17:59 10° S 03:22:13 23° SE 03:28:14 10° E visible
26 Jul - 05:40:38 10° WSW 05:47:34 60° NNW 06:01:14 10° NE visible
26 Jul - 08:08:56 10° WNW 08:18:30 25° NNW 08:33:31 10° NNE daylight
26 Jul - 10:43:01 10° NW 10:57:01 20° N 11:13:54 10° NE daylight
26 Jul - 13:15:40 10° NW 13:38:02 34° NNE 13:56:49 10° E daylight
26 Jul - 15:47:51 10° NW 16:13:20 72° NE 16:28:06 10° ESE daylight
26 Jul - 18:24:31 10° WNW 18:42:38 43° SW 18:52:36 10° SSE visible
27 Jul - 04:30:04 10° SW 04:35:51 79° SE 04:46:41 10° NE visible
27 Jul - 06:56:01 10° W 07:04:04 31° NNW 07:17:56 10° NE daylight
27 Jul - 09:28:12 10° NW 09:39:06 19° N 09:53:47 10° NE daylight
27 Jul - 12:01:18 10° NNW 12:20:13 26° NNE 12:39:23 10° ENE daylight
27 Jul - 14:32:34 10° NW 14:58:03 54° NNE 15:15:29 10° ESE daylight
27 Jul - 17:06:40 10° WNW 17:29:53 68° SW 17:42:21 10° SE daylight
27 Jul - 19:49:10 10° WSW 19:57:37 17° SW 20:03:39 10° S visible
28 Jul - 03:20:18 10° SSW 03:24:56 34° SE 03:32:07 10° ENE visible
28 Jul - 05:44:10 10° W 05:50:54 43° NNW 06:03:20 10° NE daylight
28 Jul - 08:13:53 10° NW 08:22:43 20° N 08:35:38 10° NNE daylight
28 Jul - 10:47:12 10° NNW 11:01:52 21° NNE 11:19:13 10° NE daylight
28 Jul - 13:18:03 10° NW 13:41:39 41° NNE 14:01:11 10° E daylight
28 Jul - 15:50:07 10° NW 16:16:03 86° NE 16:31:11 10° SE daylight
28 Jul - 18:28:22 10° W 18:45:11 34° SW 18:55:02 10° SSE visible
29 Jul - 02:12:11 10° SSE 02:14:08 12° SE 02:16:18 10° ESE visible
29 Jul - 04:33:11 10° WSW 04:38:50 71° NW 04:49:18 10° NE visible
29 Jul - 07:00:28 10° WNW 07:07:55 23° NNW 07:19:41 10° NNE daylight
29 Jul - 09:33:11 10° NNW 09:43:52 18° N 09:57:49 10° NE daylight
29 Jul - 12:04:10 10° NNW 12:24:20 30° NNE 12:44:32 10° E daylight
29 Jul - 14:34:43 10° NW 15:01:00 65° NE 15:18:56 10° ESE daylight
29 Jul - 17:09:38 10° WNW 17:32:20 56° SW 17:45:01 10° SE daylight
29 Jul - 19:55:38 10° WSW 20:00:45 12° SW 20:04:54 10° SSW visible
